Tracking 19827 objects as of 21-Aug-2019
HD Live streaming from Space Station
objects crossing your sky now

GGSE 2

Track GGSE 2 now!
10-day predictions
GGSE 2 is classified as:


NORAD ID: 1244
Int'l Code: 1965-016B
Perigee: 902.4 km
Apogee: 929.8 km
Inclination: 70.1 °
Period: 103.2 minutes
Semi major axis: 7287 km
RCS: 0.4868 m2 (medium)
Launch date: March 9, 1965
Source: United States (US)
Launch site: AIR FORCE WESTERN TEST RANGE (AFWTR)
aabbcc
Your satellite tracking list
Your tracking list is empty




NASA's NSSDC Master Catalog

Two Line Element Set (TLE):
1  1244U 65016B   19232.90571904 -.00000020 +00000-0 +23977-4 0  9996
2  1244 070.0787 092.4724 0018855 129.4636 230.8142 13.95634123770335
Source of the keplerian elements: AFSPC